Погода в Дурнове

Россия / Омская область     56°17′27″N   75°24′38″E
темп.,
°C
ветер,
м/с
пор.,
м/с
влажн.,
%
обл.,
%
осадки,
мм/ч
давл.,
гПа
погр.,
м
2 марта, вт
вт200:00−17всв229792 0.3 101421
03:00−19ссв119979 0.1 101420
06:00−20зсз1110084 0.1 101520
09:00−18юз119793 0.1 101543
12:00−15ююз239290 0.1 1016280
15:00−13ююз2393100 0.1 1015360
18:00−16ю339697 0.1 101457
21:00−18ю339883 0.0 101430
3 марта, ср
ср300:00−19ююз349877 0.1 101581
03:00−20ююз349983 0.0 101450
06:00−21ююз349984 0.1 101561
09:00−20ю489853 0.0 1014165
12:00−15ю599570 0.0 1013315
15:00−12ю61193100 0.0 1012455
18:00−14ю71292100 0.1 1012511
21:00−13ююз61393100 0.5 1011554
4 марта, чт
чт400:00−10ююз61393100 0.9 1010606
03:00−8ююз61394100 0.4 1009569
06:00−6ююз61394100 0.9 1008560
09:00−4ю71394100 0.5 1006645
12:00−1ююз71294100 1.1 1005937
15:00−1ююз91494100 0.8 1003913
18:00−2ююз81495100 1.6 1003911
21:00−1ююз81595100 0.4 1001864
5 марта, пт
пт500:00−1ююз81492100 1.1 1001877
03:00−2ююз7139699 0.5 1000762
06:00−4з61195100 1.6 1002728
09:00−8зюз71391100 0.3 1005540
12:00−8зюз7138788 0.3 1008654
15:00−7юз7128951 0.0 1009616
18:00−7юз7139375 0.3 1009959
21:00−6юз71393100 0.5 1007819
6 марта, сб
сб600:00−4юз91694100 1.7 1006952
03:00−4юз91694100 1.1 1004918
06:00−4юз91693100 2.0 1004829
09:00−4юз81594100 0.6 1003787
12:00−2юз91494100 1.6 1003921
15:00−1з71183100 0.6 10041199
18:00−5зюз5128567 0.6 1006462
21:00−8зюз5129167 0.0 1009343